Regional Weather Roundup
Issued by NWS Boston, MA

Current Version | Previous Version | Text Only | Print | Product List | Glossary Off
Versions: 1 2 3 4 5 6 7 8 9 10 11 12 13 14 15 16 17 18 19 20 21 22 23 24 25 26 27
000 ASUS41 KBOX 301210 RWRBOX REGIONAL WEATHER ROUNDUP NATIONAL WEATHER SERVICE TAUNTON MA 800 AM EDT THU MAR 30 2017 NOTE: "FAIR" INDICATES FEW OR NO CLOUDS BELOW 12,000 FEET WITH NO SIGNIFICANT WEATHER AND/OR OBSTRUCTIONS TO VISIBILITY. MAZALL-301300- EASTERN MASSACHUSETTS CITY SKY/WX TMP DP RH WIND PRES REMARKS BOSTON MOSUNNY 37 20 50 NW14 30.21R WCI 28 6HR MIN TEMP: 34; 6HR MAX TEMP: 37; BEVERLY SUNNY 36 21 54 NW8 30.19R WCI 30 LAWRENCE SUNNY 34 20 56 NW7 30.22R WCI 28 BEDFORD SUNNY 36 17 46 NW9 30.20R WCI 29 BLUE HILL N/A 32 18 56 NW9G18 30.17R WCI 24 NORWOOD SUNNY 37 20 50 NW9 30.21R WCI 30 MARSHFIELD SUNNY 37 23 56 N7 30.19R PLYMOUTH SUNNY 34 24 67 NW8 30.20R WCI 27 TAUNTON SUNNY 35 22 58 NW5 30.20R WCI 31 NEW BEDFORD SUNNY 35 22 58 VRB5 30.20R WCI 31 $$ MAZALL-301300- CAPE COD AND THE ISLANDS CITY SKY/WX TMP DP RH WIND PRES REMARKS FALMOUTH SUNNY 34 23 64 MISG 30.20R HYANNIS PTSUNNY 38 25 59 N12G21 30.16R WCI 30 CHATHAM PTSUNNY 39 25 57 VRB7 30.17R PROVINCETOWN CLOUDY 38 24 57 N16G26 30.18R WCI 29 NANTUCKET SUNNY 39 24 55 N17 30.17R WCI 30 MARTHAS VNYRD SUNNY 38 26 62 N12 30.19R WCI 30 $$ MAZALL-301300- CENTRAL AND WESTERN MASSACHUSETTS CITY SKY/WX TMP DP RH WIND PRES REMARKS WORCESTER SUNNY 31 15 52 NW13 30.19R WCI 21 6HR MIN TEMP: 29; 6HR MAX TEMP: 32; FITCHBURG SUNNY 36 18 48 NW8 30.23R WCI 30 ORANGE SUNNY 32 22 66 N3 30.23R SPRINGFIELD MOSUNNY 30 25 81 N3 30.24R WESTFIELD SUNNY 32 26 78 CALM 30.25R NORTH ADAMS SUNNY 32 19 58 W6 30.26R WCI 26 PITTSFIELD SUNNY 31 17 56 NW10 30.22R WCI 22 $$ RIZALL-301300- RHODE ISLAND CITY SKY/WX TMP DP RH WIND PRES REMARKS PROVIDENCE MOSUNNY 38 19 46 NW9 30.22R WCI 31 6HR MIN TEMP: 34; 6HR MAX TEMP: 38; NEWPORT SUNNY 36 25 64 NW10 30.21R WCI 28 SMITHFIELD SUNNY 34 21 59 NW7 30.21R WCI 28 WESTERLY SUNNY 37 23 56 NW8 30.24R WCI 31 $$ CTZALL-301300- CONNECTICUT CITY SKY/WX TMP DP RH WIND PRES REMARKS BRADLEY INTL MOSUNNY 35 21 56 NW8 30.26R WCI 29 6HR MIN TEMP: 30; 6HR MAX TEMP: 35; HARTFORD SUNNY 37 21 52 NW10 30.26R WCI 30 BRIDGEPORT SUNNY 38 22 52 NW8 30.28R DANBURY SUNNY 35 23 61 NW6 30.27R WCI 30 GROTON SUNNY 37 23 56 NW8 30.24R WCI 31 NEW HAVEN MOSUNNY 37 22 54 N6 30.27R CHESTER NOT AVBL MERIDEN SUNNY 37 22 54 NW9 30.27R WCI 30 WILLIMANTIC SUNNY 32 26 78 NE3 30.25R OXFORD MOSUNNY 32 18 55 N7 30.26R WCI 26 $$ MEZ002-015-021-024-NHZ003-005-008-011-012-014-VTZ005-008-301300- NORTHERN NEW ENGLAND CITY SKY/WX TMP DP RH WIND PRES REMARKS PORTLAND ME MOSUNNY 35 19 52 NW15 30.18R WCI 25 6HR MIN TEMP: 32; 6HR MAX TEMP: 37; BANGOR ME PTSUNNY 32 24 72 NW13 30.14R WCI 22 CONCORD NH SUNNY 35 20 54 NW13 30.21R WCI 26 MANCHESTER NH SUNNY 36 17 46 NW12G18 30.20R WCI 28 NASHUA NH SUNNY 35 19 52 NW9 30.22R WCI 28 PORTSMOUTH NH SUNNY 35 22 59 NW6 30.19R WCI 30 JAFFREY NH SUNNY 32 14 47 N7 30.19R WCI 26 KEENE NH SUNNY 33 18 53 NE3 30.24R BURLINGTON VT MOSUNNY 33 19 56 N9 30.30R WCI 25 MT. WASHINGTON PTSUNNY 9 3 78 NW30G43 N/A WCI -14 $$ NYZ052-076-301300- EASTERN NEW YORK CITY SKY/WX TMP DP RH WIND PRES REMARKS ALBANY MOSUNNY 33 24 69 N3 30.30R 6HR MIN TEMP: 26; 6HR MAX TEMP: 33; NEW YORK CITY MOSUNNY 42 22 44 N12 30.26S 6HR MIN TEMP: 41; 6HR MAX TEMP: 43; $$ ANZALL-301300- MARINE OBSERVATIONS STATION/POSITION TIME TEMP WIND PRES VSBY WAVE AIR SEA DIR/SP/G HT/PER (UTC) (F) (DEG/KT/KT) (MB) (MI) (FT/S) BOSTON BUOY 1050 37 40 340/ 14/ 17 1021.7 4/ 6 BUZZARDS BAY 1100 36 340/ 15/ 16 1022.9R NANTUCKET SOUND 1150 40 1021.5R 2/ 3 MASS BAY-STELLWA 1104 37 39 310/ 12/ 14 1021.4R 4/ 6 ISLE OF SHOALS 1100 35 320/ 11/ 13 1021.7R S OF BLOCK IS 1155 40 N/A 4/ 4 $$ ......................KEY......................... SKY/WX - SKY CONDITION/PRESENT WEATHER TMP - TEMPERATURE IN FAHRENHEIT DWPT - DEWPOINT IN FAHRENHEIT RH - RELATIVE HUMIDITY IN PERCENT WIND - DIRECTION AND SPEED IN MPH PRES - MEAN SEA LEVEL PRESSURE IN INCHES OF HG WCI - WIND CHILL INDEX VSB - VISIBILITY IN MILES HX - HEAT INDEX TC - TEMPERATURE IN CELSIUS VRB - VARIABLE WIND DIRECTION N/A - NOT AVAILABLE

USA.gov is the U.S. government's official web portal to all federal, state and local government web resources and services.